User: anonymous   Login
Location: Vale
(35.4830°N, 81.3830°W)
Time: 10:52:29
(UTC-05:00)
Language:

Cosmos 2237 Rocket - Orbit

View from above orbital plane
View from above orbital plane
View from above satellite
View from above satellite

Ground track
Ground track

The orbit data is extracted from the following two-line orbital elements,

1 22566U 93016B   15057.92097363 -.00000249  00000-0 -10400-3 0  9992
2 22566 071.0080 032.7059 0011705 322.3606 037.6696 14.14887319132279
Epoch (UTC): 26 February 2015 22:06:12
Eccentricity: 0.0011705
inclination: 71.0080°
perigee height: 834 km
apogee height: 851 km
right ascension of ascending node: 32.7059°
argument of perigee: 322.3606°
revolutions per day: 14.14887319
mean anomaly at epoch: 37.6696°
orbit number at epoch: 13227

The dashed part of the orbit path shows where the satellite is in the earth's shadow,  

DLR